Location: Newark
(58.9986°N, 38.5006°E)
Time: 22:33:26
(UTC+00:00)

N. Korean satellite - Pass Details

Date: 16 December 2019
Orbit: 454 x 507 km, 97.2° (Epoch: 24 January)

Event Time Altitude Azimuth Distance (km) Brightness Sun altitude
Rises 03:56:16 0° 13° (NNE) 2,553 10.2 -15.5°
Reaches altitude 10° 03:58:22 10° 11° (N) 1,659 9.2 -15.2°
Maximum altitude 04:01:53 64° 289° (WNW) 527 6.4 -14.8°
Drops below altitude 10° 04:05:20 10° 208° (SSW) 1,619 9.1 -14.4°
Sets 04:07:21 0° 205° (SSW) 2,483 10.1 -14.2°
